Location: GMARS
(34.2910°N, 116.3838°W)
Time: 18:43:30
(UTC-07:00)

Daily predictions for brighter satellites

Satellite Brightness Start Highest point End
(mag) Time Altitude Azimuth Time Altitude Azimuth Time Altitude Azimuth
ATLAS 5 CENTAUR R/B 2.1 18:48:40 10° S 18:53:08 46° ESE 18:57:54 10° NE
Cosmos 1766 3.6 18:51:11 10° SSE 18:54:56 44° E 18:58:43 10° NNE
Cosmos 1464 Rocket 4.4 18:49:24 10° SSE 18:55:14 42° E 19:01:00 10° NNE
Cosmos-2242 4.4 18:53:30 10° SE 18:56:33 19° E 18:59:36 10° NE
Atlas Centaur 2 3.6 18:48:35 10° W 18:56:56 59° SSW 19:04:55 10° ESE
FREGAT/IRIS 3.8 18:59:54 10° SE 19:02:27 24° ENE 19:05:01 10° NNE
SEDSat Delta rocket 4.2 19:01:05 10° WSW 19:07:36 68° S 19:14:10 11° E
Cosmos 1452 Rocket 4.5 19:03:34 10° N 19:07:59 27° ENE 19:12:23 10° ESE
Blok-ML 4.3 19:02:41 10° NNW 19:08:41 87° WSW 19:14:21 10° SSE
SL-16 R/B 2.4 19:04:06 10° SSW 19:09:47 79° WNW 19:15:30 10° NNE
ATLAS CENTAUR R/B 1.3 19:06:23 10° NNW 19:10:30 85° WSW 19:14:17 10° SSE
Cosmos 1544 4.4 19:11:50 10° SE 19:14:34 20° E 19:17:19 10° NE
Cosmos 1437 2.9 19:11:33 10° NNW 19:14:48 76° W 19:18:03 10° S
SL-8 R/B 3.9 19:10:37 10° SSW 19:15:13 50° SE 19:19:50 10° ENE
NOSS 3-2 (A) 3.8 19:09:41 10° SW 19:15:39 71° WNW 19:22:07 10° NNE
Cosmos 1408 Rocket 4.1 19:12:37 10° NNE 19:16:37 35° E 19:20:33 10° SE
Cosmos 1953 2.7 19:17:05 10° SSE 19:20:48 39° E 19:24:32 10° NNE
Cosmos 1378 3.0 19:18:01 10° N 19:21:45 71° E 19:25:27 10° SSE
METEOR-M 4.4 19:16:57 10° SE 19:22:03 48° ENE 19:27:10 10° N
Cosmos 1805 3.5 19:21:26 10° SSE 19:25:10 44° E 19:28:55 10° NNE
Gbstr 26 Del rocket 4.2 19:22:12 10° S 19:25:44 25° SE 19:28:30 16° E
SAR-Lupe-4 3.7 19:23:10 10° S 19:26:43 76° WSW 19:30:18 10° NNW
Meteor 1-28 Rocket 3.4 19:25:07 10° N 19:28:49 73° WNW 19:32:30 10° SSW
Abrixas 2.4 19:26:58 10° SW 19:29:56 67° SE 19:31:53 19° ENE
Resurs 1-3 4.2 19:27:08 10° SE 19:31:07 35° ENE 19:35:08 10° N
ATLAS CENTAUR R/B 3.7 19:27:18 10° SW 19:31:39 67° NW 19:45:06 10° NE
Resurs 01 Rocket 1.8 19:27:51 10° SSE 19:32:07 49° ENE 19:36:25 10° N
Okean 3 Rocket 4.3 19:27:45 10° NNW 19:32:13 58° W 19:36:40 10° S
FENGYUN 3A 4.4 19:29:17 11° SE 19:33:36 30° ENE 19:38:13 10° N
Cosmos 2278 Rocket 4.0 19:32:55 10° NW 19:37:54 33° WSW 19:42:53 10° SSW
ASTEX 1 4.0 19:35:26 10° NNE 19:39:47 32° E 19:44:06 10° SSE
Helios 1A 3.0 19:37:58 10° SSE 19:42:03 55° ENE 19:46:11 10° N
Spot 2 Rocket 3.4 19:38:21 10° SSE 19:43:20 69° ENE 19:48:21 10° N
Cosmos 1269 Rocket 4.1 19:38:45 10° S 19:43:52 53° ESE 19:48:59 10° NNE
Cosmos 2297 4.1 19:38:43 10° NNW 19:44:20 66° WSW 19:49:52 10° S
Cosmos 1743 Rocket 4.2 19:41:02 10° NNE 19:45:05 34° E 19:46:46 25° ESE
Cosmos 1048 Rocket 4.2 19:40:32 10° S 19:45:35 46° ESE 19:50:36 10° NNE
Cosmos 1470 4.0 19:49:04 24° NE 19:49:04 24° NE 19:51:10 10° NNE
CENTAUR R/B 2.8 19:44:24 10° S 19:49:48 39° ESE 19:55:45 10° NE
SJ-6B 4.0 19:47:41 10° S 19:51:27 44° W 19:55:20 10° NNW
NOSS 3-3 (A) 4.5 19:44:14 10° NNW 19:51:50 79° ENE 19:59:24 12° SE
NOSS 3-3 (C) 4.5 19:44:20 10° NNW 19:51:56 79° ENE 19:59:26 12° SE
Cosmos 1943 3.7 19:48:03 10° SSE 19:53:04 34° ESE 19:58:05 10° NE
GPS 2-04 Rocket1 2.5 19:50:03 10° WSW 19:53:28 59° SSE 19:54:14 45° ESE
NOSS 3-2 (C) 4.5 19:48:23 10° SW 19:54:09 47° NW 20:00:26 10° NNE
Cosmos 2369 Rocket 3.5 19:51:54 10° N 19:56:01 20° ENE 19:56:06 20° ENE
Cosmos 1603 3.7 19:51:24 10° SSW 19:57:08 86° WNW 20:02:55 10° NNE
HJ-1C 3.8 19:55:52 10° S 19:59:11 64° W 20:02:32 10° NNW
Cosmos 1758 4.1 19:59:12 10° SSW 20:03:09 53° W 20:07:11 10° N
ISS -3.5 20:02:41 10° SW 20:05:55 86° NW 20:06:00 83° NNE
Nadezhda 4 Rocket 3.9 20:01:11 10° N 20:07:27 70° E 20:13:35 10° SSE
Cosmos 1674 3.6 20:09:05 10° N 20:11:36 35° NNE 20:11:36 35° NNE
BREEZE-M DEB (TANK) 4.2 20:10:33 10° W 20:13:14 30° SSW 20:19:03 12° SSE
Cosmos 1092 Rocket 4.0 20:08:26 10° N 20:14:31 56° E 20:17:09 33° SE
OAO 3 Rocket 3.1 20:12:50 10° W 20:17:38 83° N 20:18:26 62° E
ASTRO E2 3.1 20:14:13 10° W 20:18:06 49° S 20:18:06 49° S
FengYun 1-2 T 4.4 20:12:45 10° S 20:18:15 73° WSW 20:23:45 10° NNW
ALOS 2.2 20:21:06 31° S 20:23:19 82° WSW 20:28:01 10° NNW
Cosmos 1634 Rocket 3.9 20:19:13 10° S 20:25:22 64° E 20:31:31 10° NNE
CZ-4B DEB 4.4 20:30:15 33° NW 20:30:15 33° NW 20:32:18 10° NNW
USA 215 4.3 20:23:46 10° NNE 20:29:49 42° NW 20:35:51 10° WSW
OAO 1 Rocket 4.3 20:30:40 10° W 20:36:03 82° N 20:36:20 78° NE
SeaSat 1 2.4 20:32:38 10° NNE 20:37:36 85° WNW 20:42:31 10° SSW
ATLAS 5 CENTAUR R/B 4.3 20:34:35 10° W 20:38:05 20° NW 20:41:46 10° N
CZ-2D R/B 4.4 20:44:39 41° WNW 20:44:39 41° WNW 20:47:35 10° NNW
Atlas Centaur 2 4.0 20:39:01 10° W 20:46:14 32° SSW 20:48:45 26° S
Cosmos 2195 Rocket 4.5 20:44:22 10° N 20:50:09 67° NE 20:50:09 67° NE
SEDSat Delta rocket 4.1 20:47:31 10° W 20:54:14 64° S 20:54:17 64° S
Cosmos 2369 Rocket 3.8 21:34:51 10° NNW 21:37:56 31° NW 21:37:56 31° NW
CENTAUR R/B 4.0 21:35:07 10° WSW 21:40:27 32° NW 21:46:24 10° NNE
Cosmos 1943 Rocket 4.3 21:38:14 10° NNW 21:39:43 19° NNW 21:39:43 19° NNW
CZ-3A R/B 4.4 21:05:31 10° SW 21:51:44 88° NW 21:53:13 71° NE
